FW6155 Weather Reports


Display with metric or nautical units.
time (UTC)temp
F
wind
direction
speed
MPH
gust
MPH
rain 1hr
in
rain 24hr
in
rain mn
in
humidity
%
barometer
mb
20260902104614 59 0.0 0.0 0.00 0.00 0.00 90 1009.9
20260902103109 59 0.0 0.0 0.00 0.00 0.00 90 1010.1
20260902101600 59 0.0 0.0 0.00 0.00 0.00 90 1010.2
20260902100049 59 0.0 0.0 0.00 0.00 0.00 90 1010.1
20260902094546 60 0.0 0.0 0.00 0.00 0.00 90 1010.2
20260902093054 60 0.0 0.0 0.00 0.00 0.00 90 1010.3
20260902091549 60 0.0 0.0 0.00 0.00 0.00 90 1010.4
20260902090057 60 0.0 0.0 0.00 0.00 0.00 89 1010.6
20260902084556 60 0.0 0.0 0.00 0.00 0.00 89 1010.7
20260902083054 60 0.0 0.0 0.00 0.00 0.00 89 1010.7
20260902081559 60 0.0 0.0 0.00 0.00 0.00 88 1010.8
20260902080054 61 0.0 0.0 0.00 0.00 0.00 88 1010.9
20260902074552 61 0.0 0.0 0.00 0.00 0.00 88 1011.0
20260902073049 61 0.0 0.0 0.00 0.00 0.00 88 1011.1
20260902071554 61 0.0 0.0 0.00 0.00 0.00 88 1011.1
20260902070056 61 0.0 0.0 0.00 0.00 0.00 88 1011.2
20260902064601 61 0.0 0.0 0.00 0.00 0.00 88 1011.3
20260902063103 61 0.0 0.0 0.00 0.00 0.00 88 1011.3
20260902061614 61 0.0 0.0 0.00 0.00 0.00 88 1011.3
20260902060055 61 0.0 0.0 0.00 0.00 0.00 88 1011.2
20260902054553 61 0.0 0.0 0.00 0.00 0.00 88 1011.4
20260902053049 61 0.0 0.0 0.00 0.00 0.00 89 1011.6
20260902051557 61 0.0 0.0 0.00 0.00 0.00 89 1011.7
20260902050057 61 0.0 0.0 0.00 0.00 0.00 89 1011.6
20260902044607 61 0.0 0.0 0.00 0.00 0.00 89 1011.4
20260902043050 61 0.0 0.0 0.00 0.00 0.00 89 1011.6
20260902041555 61 0.0 0.0 0.00 0.00 0.00 89 1011.6
20260902040055 61 0.0 0.0 0.00 0.00 0.00 88 1011.6
20260902034552 61 0.0 0.0 0.00 0.00 0.00 87 1011.6
20260902033049 62 0.0 0.0 0.00 0.00 0.00 85 1011.6
20260902031606 63 0.0 0.0 0.00 0.00 0.00 79 1011.5
20260902030056 64 0.0 0.0 0.00 0.00 0.00 76 1011.2
20260902024559 65 0.0 0.0 0.00 0.00 0.00 78 1011.0
20260902023048 65 0.0 0.0 0.00 0.00 0.00 78 1011.0
20260902021546 65 0.0 0.0 0.00 0.00 0.00 78 1011.0
20260902020051 65 0.0 0.0 0.00 0.00 0.00 77 1011.0
20260902014552 65 0.0 0.0 0.00 0.00 0.00 76 1011.1
20260902013109 65 0.0 0.0 0.00 0.00 0.00 75 1011.0
20260902011557 65 0.0 0.0 0.00 0.00 0.00 75 1011.0
20260902010059 66 0.0 0.0 0.00 0.00 0.00 74 1011.0
20260902004553 65 0.0 0.0 0.00 0.00 0.00 75 1011.1
20260902003048 66 0.0 0.0 0.00 0.00 0.00 75 1011.1
20260902001552 66 0.0 0.0 0.00 0.00 0.00 76 1011.0
20260902000049 66 0.0 0.0 0.00 0.00 0.00 75 1011.0
20260901234555 66 0.0 0.0 0.00 0.00 0.00 74 1011.0
20260901233103 66 0.0 0.0 0.00 0.00 0.00 75 1011.0
20260901231602 66 0.0 0.0 0.00 0.00 0.00 76 1011.0
20260901230105 66 0.0 0.0 0.00 0.00 0.00 75 1011.1
20260901224546 65 0.0 0.0 0.00 0.00 0.00 76 1011.0
20260901223055 66 0.0 0.0 0.00 0.00 0.00 74 1011.2
20260901221607 66 0.0 0.0 0.00 0.00 0.00 75 1011.1
20260901220051 66 0.0 0.0 0.00 0.00 0.00 74 1011.1
20260901214546 66 0.0 0.0 0.00 0.00 0.00 74 1011.1
20260901213054 66 0.0 0.0 0.00 0.00 0.00 75 1011.1
20260901211553 66 0.0 0.0 0.00 0.00 0.00 76 1011.1
20260901210051 66 0.0 0.0 0.00 0.00 0.00 76 1011.3
20260901204550 66 0.0 0.0 0.00 0.00 0.00 76 1011.4
20260901203054 67 0.0 0.0 0.00 0.00 0.00 75 1011.6
20260901201553 67 0.0 0.0 0.00 0.00 0.00 74 1011.5
20260901200052 68 0.0 0.0 0.00 0.00 0.00 73 1011.4
20260901194550 67 0.0 0.0 0.00 0.00 0.00 74 1011.5
20260901193046 66 0.0 0.0 0.00 0.00 0.00 76 1011.5
20260901191553 66 0.0 0.0 0.00 0.00 0.00 76 1011.6
20260901190051 66 0.0 0.0 0.00 0.00 0.00 77 1011.7
20260901184549 65 0.0 0.0 0.00 0.00 0.00 77 1011.7
20260901183117 65 0.0 0.0 0.00 0.00 0.00 78 1011.7
20260901181546 64 0.0 0.0 0.00 0.00 0.00 78 1011.8
20260901180054 64 0.0 0.0 0.00 0.00 0.00 80 1011.6
20260901174552 63 0.0 0.0 0.00 0.00 0.00 81 1011.5
20260901173100 62 0.0 0.0 0.00 0.00 0.00 82 1011.4
20260901171558 61 0.0 0.0 0.00 0.00 0.00 84 1011.5
20260901170059 60 0.0 0.0 0.00 0.00 0.00 85 1011.5
20260901164551 60 0.0 0.0 0.00 0.00 0.00 85 1011.5
20260901163107 60 0.0 0.0 0.00 0.00 0.00 85 1011.6
20260901161606 60 0.0 0.0 0.00 0.00 0.00 85 1011.6
20260901160055 60 0.0 0.0 0.00 0.00 0.00 86 1011.7
20260901154550 59 0.0 0.0 0.00 0.00 0.00 86 1011.8
20260901153050 59 0.0 0.0 0.00 0.00 0.00 86 1011.9
20260901151557 59 0.0 0.0 0.00 0.00 0.00 86 1011.9
20260901150055 59 0.0 0.0 0.00 0.00 0.00 86 1011.9
20260901144553 59 0.0 0.0 0.00 0.00 0.00 86 1011.7
20260901143048 59 0.0 0.0 0.00 0.00 0.00 87 1011.5
20260901141559 58 0.0 0.0 0.00 0.00 0.00 87 1011.6
20260901140051 58 0.0 0.0 0.00 0.00 0.00 87 1011.3
20260901134550 58 0.0 0.0 0.00 0.00 0.00 86 1011.3
20260901133058 58 0.0 0.0 0.00 0.00 0.00 86 1011.2
20260901131552 58 0.0 0.0 0.00 0.00 0.00 86 1011.2
20260901130051 58 0.0 0.0 0.00 0.00 0.00 86 1011.0
20260901124546 58 0.0 0.0 0.00 0.00 0.00 86 1010.9
20260901123055 59 0.0 0.0 0.00 0.00 0.00 87 1010.9
20260901121559 58 0.0 0.0 0.00 0.00 0.00 87 1010.7
20260901114552 57 0.0 0.0 0.00 0.00 0.00 87 1010.4
20260901113057 57 0.0 0.0 0.00 0.00 0.00 86 1010.3
20260901111559 58 0.0 0.0 0.00 0.00 0.00 86 1010.4
20260901110054 58 0.0 0.0 0.00 0.00 0.00 85 1010.4